This is the latest recevied weather packets stored in our database for station/object OE2WAO-15. If no packets are shown the sender has not sent any weather packets the latest 10 day(s).
| Time | Temp. | Humidity | Pressure | Rain* | Wind** | Luminosity | Snow |
|---|---|---|---|---|---|---|---|
| 1787944352 | 21.11° C | 99% | 1015.3 hPa | - | - | - | - |
| 1787943744 | 21.11° C | 99% | 1015.4 hPa | - | - | - | - |
| 1787943137 | 21.11° C | 99% | 1015.4 hPa | - | - | - | - |
| 1787942529 | 21.11° C | 99% | 1015.6 hPa | - | - | - | - |
| 1787941921 | 21.11° C | 99% | 1015.5 hPa | - | - | - | - |
| 1787941314 | 21.11° C | 99% | 1015.6 hPa | - | - | - | - |
| 1787940706 | 21.11° C | 99% | 1015.6 hPa | - | - | - | - |
| 1787940099 | 21.67° C | 99% | 1015.4 hPa | - | - | - | - |
| 1787939491 | 21.67° C | 99% | 1015.1 hPa | - | - | - | - |
| 1787938883 | 21.67° C | 99% | 1015.2 hPa | - | - | - | - |
| 1787938276 | 22.22° C | 99% | 1015.4 hPa | - | - | - | - |
| 1787937668 | 22.22° C | 99% | 1015.9 hPa | - | - | - | - |
| 1787937061 | 22.22° C | 99% | 1016.3 hPa | - | - | - | - |
| 1787936453 | 22.22° C | 99% | 1016.4 hPa | - | - | - | - |
| 1787935845 | 22.22° C | 99% | 1016.2 hPa | - | - | - | - |
| 1787935237 | 22.22° C | 99% | 1016.2 hPa | - | - | - | - |
| 1787934629 | 22.22° C | 99% | 1016.4 hPa | - | - | - | - |
| 1787934022 | 22.22° C | 99% | 1016.2 hPa | - | - | - | - |
| 1787933413 | 22.22° C | 99% | 1016.2 hPa | - | - | - | - |
| 1787932805 | 21.67° C | 99% | 1016.4 hPa | - | - | - | - |
| 1787932197 | 21.67° C | 99% | 1016.7 hPa | - | - | - | - |
| 1787931590 | 22.22° C | 99% | 1016.8 hPa | - | - | - | - |
| 1787930981 | 23.33° C | 99% | 1017.5 hPa | - | - | - | - |
| 1787930374 | 23.89° C | 99% | 1016.4 hPa | - | - | - | - |
| 1787929766 | 24.44° C | 99% | 1016 hPa | - | - | - | - |
* Rain since midnight (hover to see other rain measurements)
** Current wind speed in m/s (hover to see current wind gust speed)